Powrót do katalogu

COSMOS 397 DEB *

AktywnyLEO
NORAD 19024·DEBRIS·🇷🇺 Russia

Wystrzelony Feb 25, 1971 z Baikonur Cosmodrome

Loading…

Następne Przeloty (najbliższe 24 godziny)

TLE

ŚwieżeSource: Space-Track

Epoka: Sep 14, 2026, 10:13 UTC

1 19024U 71015DN  26257.42590459  .00000524  00000-0  67119-3 0  9998
2 19024  66.2741 249.5370 0501507 333.5468  96.5494 13.26848681857569

Śledź COSMOS 397 DEB * w czasie rzeczywistym z AllMySat

Download on the App Store